Wind_Speed
11 12 13 14 16 17 18 21 22 22 21 21 20 18 17 16 14 13 12 12 12 12 12 12 11 11 10 9 8 9 10 11 12 13 14 16 18 20 21 22 23 24 24 25
11 12 14 15 16 16 17 18 21 22 21 20 19 17 17 16 15 14 13 12 13 13 13 13 12 11 10 10 10 10 10 11 12 14 15 17 19 20 21 22 23 24 26 26
11 12 14 14 15 16 16 17 18 20 19 18 18 18 16 15 14 14 13 13 13 12 12 13 13 12 12 12 12 11 11 12 13 15 15 17 18 19 21 23 24 25 25 26
11 12 14 14 15 15 16 16 16 16 16 16 16 15 13 13 14 14 14 14 14 13 13 14 13 13 13 13 13 13 13 13 14 15 15 17 18 20 21 23 23 24 25 25
11 12 13 13 14 14 15 16 15 15 14 14 14 14 11 11 12 12 13 13 14 15 15 15 14 14 14 14 14 14 14 14 14 15 16 17 18 20 21 23 24 24 25 26
11 12 13 13 14 14 14 15 15 15 15 14 14 14 12 11 11 12 13 13 13 15 15 15 15 15 15 15 16 16 16 16 16 16 17 18 18 19 20 22 23 24 25 26
12 12 12 12 13 14 14 14 15 15 16 16 15 15 13 12 13 13 14 14 14 14 14 15 16 16 17 17 17 17 17 17 18 18 19 19 20 21 21 22 23 23 24 26
12 13 12 12 13 13 14 14 14 15 15 15 16 16 14 14 15 14 14 13 14 14 14 16 17 17 18 18 18 18 18 19 19 20 20 20 21 22 22 22 23 24 24 25
11 13 13 13 13 13 13 14 14 15 15 16 16 15 15 15 15 16 15 15 15 16 17 18 18 19 19 19 20 20 21 21 21 21 22 22 22 22 23 23 24 24 24 24
11 12 13 13 13 13 14 15 15 16 16 16 16 15 15 15 15 16 16 16 16 18 19 20 19 19 19 20 21 22 22 23 23 23 23 23 23 24 24 24 24 24 24 24
11 11 13 14 14 14 14 15 15 15 16 17 16 15 15 16 16 16 16 16 17 19 20 21 20 20 20 21 23 24 24 24 25 25 25 25 25 25 25 25 25 25 25 25
10 11 12 13 14 14 14 15 15 16 16 17 17 16 16 17 16 16 17 17 18 18 20 21 21 21 22 22 24 25 25 26 26 26 26 26 26 26 26 26 26 25 25 25
10 11 12 12 13 13 14 14 15 15 15 16 16 16 16 17 16 16 17 18 18 17 18 20 21 22 23 23 25 26 26 26 27 27 27 26 26 26 26 26 26 25 25 24
9 10 11 12 13 12 13 14 14 15 15 15 16 16 16 17 17 18 18 18 18 19 20 21 21 22 23 25 26 27 26 27 27 26 26 26 27 27 26 26 25 25 25 25
9 9 10 11 11 12 12 13 13 14 14 15 16 16 15 16 17 18 19 20 21 21 22 23 23 23 24 25 26 26 26 26 26 26 25 25 25 25 25 25 25 25 25 25
9 9 10 10 11 11 11 12 12 13 14 15 16 16 17 18 19 19 20 21 21 22 23 24 23 23 24 24 25 26 26 26 25 24 25 25 25 25 24 24 25 25 24 25
9 9 9 9 10 10 11 11 12 13 14 15 16 17 17 18 18 19 20 21 22 23 24 23 23 23 23 24 24 24 24 24 23 23 23 23 24 24 23 23 23 23 23 23
9 9 9 9 9 9 10 11 12 13 13 15 16 17 17 17 17 19 20 21 22 22 22 21 23 23 22 23 23 22 22 22 21 22 22 22 22 22 22 22 22 21 21 20
8 8 8 9 9 9 9 10 11 11 12 13 14 15 16 16 18 19 20 20 20 20 20 21 21 21 21 21 21 21 21 22 22 21 22 22 22 21 21 20 19 19 18 18
7 7 7 8 8 8 8 9 10 10 11 12 13 14 15 16 18 18 19 18 19 19 19 19 20 19 19 20 20 20 20 20 19 19 19 19 19 19 18 18 17 17 17 16
3 4 4 5 6 6 6 7 8 9 10 11 13 14 15 16 16 17 18 18 19 19 18 18 18 18 18 18 18 18 18 17 17 17 17 16 16 15 15 15 15 14 13 13
2 2 2 3 3 4 5 6 7 8 10 11 12 13 14 15 17 18 18 19 18 18 18 17 16 16 16 15 15 15 15 14 14 14 13 13 13 12 12 11 10 10 9 9
3 3 3 2 3 3 4 5 6 8 10 12 13 14 16 17 17 18 18 17 17 17 16 15 15 14 13 13 13 13 12 11 11 10 9 10 9 9 8 7 7 7 6 6
4 4 4 3 4 4 5 6 7 9 10 12 13 15 16 17 17 17 17 16 15 15 14 13 12 11 11 11 10 10 9 9 8 8 7 7 6 6 5 4 4 4 3 3
5 5 5 5 5 5 6 7 8 10 11 13 14 16 17 17 17 16 15 14 14 13 12 11 10 9 9 8 8 7 7 7 6 5 5 4 4 3 3 2 1 1 0 1
6 5 5 5 6 6 6 7 9 10 12 13 14 15 16 16 16 15 15 14 13 13 11 10 9 8 7 6 6 5 5 4 3 3 2 3 2 3 3 3 3 3 3 3
Wind_Direction
199 201 204 208 209 211 212 217 223 227 232 236 237 240 245 251 260 268 273 276 279 277 282 283 277 275 279 278 276 272 265 263 263 257 252 250 249 251 253 256 256 256 256 256
191 196 200 203 206 209 212 214 221 228 234 237 241 244 247 252 259 266 273 274 276 280 283 283 277 275 274 275 277 276 271 269 268 263 259 253 251 253 256 258 258 260 259 259
193 198 199 201 204 208 209 210 219 228 234 238 244 249 252 257 265 273 275 277 277 281 280 277 273 275 274 275 276 275 272 269 268 266 263 260 259 259 260 260 261 262 262 262
197 201 203 205 207 210 210 211 218 225 229 236 245 252 256 261 266 275 275 277 274 276 276 275 271 272 276 276 274 275 273 271 270 270 267 265 263 263 262 263 263 263 265 265
205 206 207 209 210 211 210 215 223 231 235 241 247 250 257 267 272 279 279 276 273 273 277 273 266 269 274 275 274 275 275 276 277 277 274 270 268 267 265 264 264 266 267 267
210 212 212 212 212 216 218 223 228 235 242 246 252 256 264 270 276 280 281 273 277 276 275 271 264 268 272 274 275 274 275 278 280 280 277 275 274 272 270 268 267 268 269 268
217 221 220 218 219 222 226 230 231 237 244 250 258 263 268 269 277 283 287 281 277 279 274 269 264 266 268 270 273 275 277 278 279 280 280 277 276 275 274 272 271 271 271 271
223 222 226 227 230 232 233 235 241 248 253 254 259 266 274 276 278 284 289 287 283 282 279 278 271 268 269 271 274 277 279 279 279 280 281 280 279 277 277 276 274 273 273 272
230 229 231 234 236 238 238 238 244 252 259 261 265 272 274 280 280 286 288 287 284 284 285 282 276 274 273 274 276 279 281 280 279 281 282 282 280 278 278 276 275 274 273 271
237 238 236 238 239 242 243 244 248 253 262 267 269 271 277 283 285 284 284 284 285 283 283 281 276 276 274 276 279 281 282 281 281 281 281 281 280 279 278 277 276 276 275 272
240 242 243 245 246 248 249 250 253 259 266 272 274 274 279 285 288 287 286 282 281 281 280 278 274 274 277 278 280 282 282 281 281 281 281 280 280 279 278 278 277 278 277 273
244 246 248 248 249 252 252 253 258 263 269 275 279 281 283 285 286 288 291 290 288 288 282 276 275 276 279 280 280 282 282 281 281 282 281 280 279 279 279 279 278 278 277 275
249 251 252 252 253 255 255 257 262 267 273 276 281 287 285 284 285 289 291 292 292 295 290 285 281 279 279 280 281 283 282 281 281 281 281 279 278 278 278 278 278 277 276 275
252 253 253 255 258 261 263 264 266 272 278 281 284 288 287 286 286 288 290 292 292 295 291 288 286 283 282 282 283 283 283 280 279 280 280 280 278 277 277 278 278 277 275 275
253 253 256 260 260 262 267 268 269 273 277 283 287 288 288 288 289 289 291 294 294 293 292 290 288 286 284 282 283 284 285 283 281 280 280 281 280 279 278 277 277 276 276 275
260 259 262 265 265 265 269 271 272 274 277 285 289 289 291 291 290 291 293 295 294 292 292 290 289 286 285 285 286 286 286 284 282 282 281 282 280 280 280 278 278 277 276 275
262 264 268 271 273 273 274 277 279 282 285 287 289 291 293 294 294 294 294 294 294 294 294 292 290 290 288 287 287 286 284 282 282 283 283 283 283 282 281 280 279 279 277 277
265 264 270 275 274 276 282 283 284 287 289 290 291 293 295 296 298 298 298 297 295 295 295 294 292 289 288 287 286 284 283 282 282 283 284 284 283 282 282 281 281 280 279 277
264 264 268 274 275 278 281 286 289 292 294 296 297 299 301 301 302 300 301 300 298 298 296 294 291 290 291 291 290 286 285 282 282 283 285 285 283 280 280 281 281 281 281 280
270 271 272 275 273 278 283 288 293 298 299 303 306 307 307 305 305 306 304 304 304 301 299 297 296 293 292 292 292 290 288 285 284 285 285 285 285 282 280 280 280 281 281 282
284 284 280 277 276 284 289 294 299 303 308 311 314 315 315 314 312 310 308 307 306 305 302 299 297 296 294 292 293 292 290 287 287 287 287 287 287 286 285 284 281 281 280 279
360 340 320 305 302 307 311 308 310 315 317 317 320 320 320 321 319 316 314 312 311 310 306 305 302 300 297 294 294 296 294 292 291 291 290 292 292 291 289 286 281 280 278 274
38 32 22 11 355 340 334 331 330 328 326 326 327 327 328 329 326 323 321 319 317 315 312 310 309 308 306 304 302 300 299 298 298 298 298 299 298 297 293 288 280 272 272 269
44 41 39 27 15 9 359 354 347 343 339 337 336 336 336 335 332 331 330 328 327 324 324 323 319 316 313 310 307 306 307 308 305 303 303 304 305 303 301 298 288 279 274 265
43 40 33 23 18 11 5 358 353 348 344 343 341 341 341 340 338 339 340 340 340 339 340 339 337 333 328 324 322 315 311 311 309 308 313 315 322 332 338 338 322 293 187 139
40 39 34 26 21 17 8 359 355 353 352 352 351 349 349 349 350 351 352 352 352 352 351 351 348 345 342 341 345 346 341 338 341 346 354 3 21 42 48 65 85 96 101 97
Height
5802 5805 5807 5809 5812 5815 5817 5819 5821 5824 5825 5827 5829 5831 5833 5834 5835 5835 5835 5835 5835 5835 5834 5834 5834 5834 5834 5834 5833 5833 5832 5833 5833 5834 5834 5835 5836 5837 5837 5838 5838 5839 5839 5840
5802 5804 5806 5808 5811 5813 5815 5818 5820 5821 5823 5826 5827 5829 5831 5832 5832 5833 5833 5832 5832 5832 5831 5831 5831 5831 5831 5831 5830 5829 5829 5829 5829 5829 5830 5830 5831 5832 5832 5832 5832 5833 5834 5834
5802 5804 5805 5808 5810 5812 5814 5817 5819 5820 5822 5823 5825 5827 5828 5829 5830 5830 5830 5829 5829 5828 5828 5828 5828 5828 5828 5827 5827 5826 5826 5825 5825 5825 5825 5825 5826 5826 5826 5826 5826 5827 5827 5828
5802 5803 5805 5807 5809 5811 5814 5816 5817 5819 5820 5822 5824 5825 5826 5826 5827 5827 5826 5826 5826 5826 5825 5825 5824 5824 5824 5824 5824 5823 5822 5822 5821 5821 5821 5820 5820 5820 5820 5820 5820 5820 5821 5821
5801 5803 5805 5807 5809 5811 5812 5814 5816 5817 5819 5820 5821 5823 5824 5824 5824 5824 5823 5823 5822 5822 5821 5821 5821 5821 5821 5820 5820 5820 5819 5818 5817 5816 5816 5815 5815 5815 5815 5815 5815 5814 5814 5814
5801 5802 5804 5805 5807 5809 5811 5813 5814 5815 5816 5818 5819 5820 5821 5821 5821 5821 5820 5819 5818 5818 5817 5817 5817 5817 5817 5816 5816 5815 5815 5814 5813 5812 5811 5811 5810 5809 5809 5809 5808 5808 5807 5807
5800 5802 5803 5804 5806 5808 5809 5811 5812 5813 5814 5815 5816 5816 5818 5818 5818 5817 5817 5815 5814 5813 5813 5813 5813 5813 5813 5812 5812 5811 5810 5809 5808 5807 5806 5805 5804 5803 5803 5802 5801 5801 5800 5799
5799 5800 5802 5803 5804 5805 5807 5809 5811 5811 5811 5812 5812 5813 5815 5814 5814 5814 5813 5812 5810 5809 5809 5809 5808 5808 5808 5808 5807 5806 5805 5804 5803 5802 5801 5799 5798 5797 5796 5795 5794 5793 5793 5792
5797 5799 5800 5801 5802 5803 5804 5805 5807 5808 5808 5809 5809 5810 5811 5810 5810 5809 5809 5808 5807 5806 5805 5804 5804 5803 5803 5802 5801 5801 5800 5798 5797 5796 5794 5793 5791 5790 5789 5788 5788 5787 5786 5785
5795 5796 5797 5798 5799 5800 5802 5803 5804 5805 5805 5805 5806 5807 5807 5807 5806 5806 5805 5804 5803 5802 5801 5799 5799 5798 5797 5796 5795 5794 5793 5792 5790 5789 5787 5786 5785 5784 5783 5782 5781 5780 5778 5778
5792 5793 5794 5795 5796 5797 5799 5800 5800 5801 5802 5802 5802 5805 5804 5803 5802 5801 5800 5799 5798 5797 5796 5794 5793 5792 5791 5790 5789 5788 5786 5785 5783 5782 5781 5779 5778 5777 5776 5775 5773 5772 5771 5770
5789 5790 5791 5792 5793 5794 5795 5796 5797 5799 5799 5799 5799 5803 5799 5799 5798 5797 5796 5794 5792 5791 5790 5788 5787 5786 5785 5784 5782 5781 5779 5778 5776 5775 5773 5772 5771 5770 5768 5767 5766 5765 5764 5763
5786 5787 5788 5789 5792 5792 5792 5793 5794 5795 5795 5795 5795 5798 5795 5794 5793 5792 5791 5789 5787 5785 5784 5783 5781 5779 5778 5777 5775 5773 5772 5770 5769 5767 5766 5764 5763 5762 5761 5759 5758 5757 5757 5756
5784 5784 5786 5787 5787 5788 5788 5789 5790 5790 5791 5790 5791 5791 5790 5789 5788 5787 5785 5784 5782 5780 5778 5776 5774 5773 5771 5769 5767 5766 5764 5762 5761 5759 5758 5757 5755 5754 5753 5752 5751 5750 5749 5749
5781 5782 5782 5783 5784 5785 5785 5786 5786 5787 5787 5787 5786 5786 5785 5784 5783 5782 5780 5778 5776 5774 5772 5770 5768 5766 5764 5762 5759 5758 5756 5755 5753 5752 5751 5749 5748 5746 5745 5744 5743 5742 5742 5741
5778 5778 5779 5780 5781 5781 5782 5782 5783 5783 5783 5782 5782 5781 5780 5779 5778 5776 5775 5773 5770 5768 5766 5764 5761 5759 5757 5754 5752 5750 5749 5747 5745 5744 5743 5742 5740 5739 5738 5737 5736 5735 5735 5734
5775 5776 5777 5777 5778 5778 5779 5779 5779 5779 5779 5778 5777 5778 5775 5774 5772 5771 5769 5767 5764 5762 5760 5757 5755 5752 5750 5748 5745 5743 5742 5740 5739 5737 5736 5735 5733 5732 5731 5730 5729 5728 5727 5727
5772 5773 5774 5775 5776 5776 5778 5776 5776 5776 5775 5774 5773 5772 5771 5770 5768 5765 5763 5761 5758 5756 5753 5751 5748 5746 5743 5741 5739 5737 5735 5734 5732 5731 5730 5728 5727 5726 5725 5723 5722 5722 5721 5720
5770 5771 5772 5772 5773 5773 5774 5773 5773 5773 5772 5771 5769 5768 5766 5765 5763 5760 5757 5755 5752 5750 5747 5745 5742 5740 5738 5735 5732 5731 5729 5728 5726 5725 5723 5722 5720 5719 5718 5717 5716 5716 5715 5714
5769 5770 5770 5770 5770 5771 5772 5771 5770 5771 5769 5768 5766 5764 5763 5761 5759 5756 5753 5749 5747 5744 5741 5739 5736 5734 5732 5729 5727 5725 5723 5722 5720 5719 5717 5716 5715 5713 5713 5712 5711 5710 5710 5709
5768 5768 5768 5768 5768 5768 5769 5768 5769 5769 5768 5765 5763 5761 5759 5756 5754 5751 5748 5744 5741 5739 5736 5733 5731 5729 5726 5724 5721 5720 5718 5716 5715 5713 5712 5711 5710 5709 5708 5707 5706 5706 5705 5705
5767 5768 5767 5767 5767 5769 5767 5767 5767 5766 5764 5762 5760 5758 5755 5752 5749 5746 5743 5740 5736 5733 5731 5728 5726 5723 5721 5718 5717 5715 5714 5712 5711 5709 5708 5707 5706 5704 5703 5703 5702 5702 5702 5702
5768 5768 5768 5768 5769 5767 5766 5765 5765 5763 5762 5760 5758 5755 5752 5749 5745 5742 5739 5735 5732 5729 5726 5724 5721 5719 5717 5715 5713 5712 5710 5709 5707 5706 5705 5704 5703 5702 5701 5700 5700 5700 5699 5699
5769 5768 5768 5767 5767 5766 5765 5764 5763 5762 5760 5758 5755 5752 5749 5746 5742 5739 5735 5732 5729 5726 5723 5720 5718 5716 5714 5712 5710 5709 5708 5707 5705 5704 5703 5702 5701 5700 5699 5699 5698 5698 5698 5698
5770 5769 5768 5767 5767 5766 5765 5764 5763 5761 5758 5756 5753 5750 5747 5743 5740 5736 5733 5729 5726 5723 5721 5718 5715 5713 5712 5710 5709 5707 5706 5705 5704 5703 5702 5701 5700 5699 5698 5698 5698 5698 5698 5698
5770 5769 5769 5768 5767 5766 5765 5764 5762 5760 5758 5755 5752 5749 5745 5742 5738 5735 5731 5728 5725 5722 5720 5717 5715 5712 5711 5709 5708 5706 5705 5704 5703 5702 5702 5701 5700 5699 5699 5699 5699 5699 5699 5699